Location: Arpaise
(41.0333°N, 14.7333°E)
Time: 16:37:52
(UTC+00:00)

Cosmos 2184 Rocket - Pass Details

Date: 05 July 2020
Orbit: 960 x 1001 km, 82.9° (Epoch: 10 August)

Event Time Altitude Azimuth Distance (km) Brightness Sun altitude
Exits shadow 20:42:26 29° 146° (SE) 1,688 4.7 -18.1°
Maximum altitude 20:45:13 48° 90° (E) 1,257 4.3 -18.4°
Drops below altitude 10° 20:51:13 10° 19° (NNE) 2,749 6.9 -19.0°
Sets 20:53:50 0° 14° (NNE) 3,708 7.7 -19.3°
